Rockford, IL

1:49 PM CST on February 25, 2018 (GMT -0600)
Greater Rockford

Weather History for KRFD - February, 2013

Change the Weather History Date:

Saturday, February 2, 2013

  Actual Average Record
Temperature  
Mean Temperature 14 °F 23 °F  
Max Temperature 22 °F 31 °F 52 °F (1987)
Min Temperature 6 °F 15 °F -22 °F (1976)
Degree Days  
Heating Degree Days 51 42  
Month to date heating degree days 111 85  
Since 1 July heating degree days 3696 3994  
Cooling Degree Days 0 0  
Month to date cooling degree days 0 0  
Year to date cooling degree days 0 0  
Moisture  
Dew Point 9 °F    
Average Humidity 75    
Maximum Humidity 88    
Minimum Humidity 61    
Precipitation  
Precipitation 0.06 in 0.04 in 0.88 in (1983)
Month to date precipitation 0.14 0.08  
Year to date precipitation 3.23 1.45  
Snow  
Snow 1.40 in 0.40 in 4.50 in (1983)
Month to date snowfall 2.8 0.7  
Since 1 July snowfall 7.6 24.0  
Snow Depth 3.00 in    
Sea Level Pressure  
Sea Level Pressure 30.10 in    
Wind  
Wind Speed 8 mph (West)    
Max Wind Speed 22 mph    
Max Gust Speed 26 mph    
Visibility 7 miles    
Events Snow    
T = Trace of Precipitation, MM = Missing Value Source: NWS Daily Summary

Daily Weather History Graph

Daily Weather History Graph

Search for Another Location

Airport or City:

Trip Planner

Search our weather history database for the weather conditions in past years. The results will help you decide how hot, cold, wet, or windy it might be!

Date:

Astronomy

Feb. 02, 2013 Rise Set
Actual Time 7:08 AM CST 5:12 PM CST
Civil Twilight 6:38 AM CST 5:42 PM CST
Nautical Twilight 6:05 AM CST 6:15 PM CST
Astronomical Twilight 5:32 AM CST 6:48 PM CST
Moon No Moon Rise 10:10 AM CST (2/2)
Length of Visible Light 11h 03m
Length of Day
10h 04m
Waning Gibbous, 59% of the Moon is Illuminated
Feb 2
Waning Gibbous
Feb 3
Last Quarter
Feb 10
New
Feb 17
First Quarter
Feb 25
Full

Hourly Weather History & Observations

Time (CST) Temp. Windchill Dew Point Humidity Pressure Visibility Wind Dir Wind Speed Gust Speed Precip Events Conditions
12:19 AM 14.0 °F 2.0 °F 10.4 °F 86% 30.12 in 2.0 mi South 9.2 mph - 0.01 in Snow Light Snow
12:40 AM 15.8 °F 3.4 °F 12.2 °F 86% 30.11 in 1.8 mi South 10.4 mph - 0.02 in Snow Light Snow
12:49 AM 15.8 °F 4.2 °F 12.2 °F 86% 30.10 in 2.5 mi South 9.2 mph - 0.03 in Snow Light Snow
12:54 AM 15.1 °F 2.5 °F 12.0 °F 88% 30.14 in 3.0 mi South 10.4 mph - 0.03 in Snow Light Snow
1:10 AM 15.8 °F 3.4 °F 12.2 °F 86% 30.09 in 1.8 mi South 10.4 mph - 0.01 in Snow Light Snow
1:44 AM 15.8 °F 3.4 °F 12.2 °F 86% 30.08 in 3.0 mi South 10.4 mph - 0.02 in Snow Light Snow
1:54 AM 16.0 °F 3.6 °F 12.9 °F 88% 30.12 in 2.5 mi South 10.4 mph - 0.02 in Snow Light Snow
2:13 AM 15.8 °F 4.2 °F 12.2 °F 86% 30.07 in 9.0 mi South 9.2 mph - 0.01 in   Overcast
2:37 AM 17.6 °F 5.7 °F 12.2 °F 79% 30.06 in 10.0 mi South 10.4 mph - 0.01 in   Overcast
2:54 AM 17.1 °F 6.6 °F 14.0 °F 88% 30.10 in 10.0 mi SSW 8.1 mph - 0.01 in   Overcast
3:33 AM 17.6 °F 6.4 °F 15.8 °F 93% 30.03 in 10.0 mi SSW 9.2 mph - N/A   Overcast
3:54 AM 19.0 °F 9.0 °F 16.0 °F 88% 30.06 in 10.0 mi SSW 8.1 mph - N/A   Overcast
4:54 AM 21.0 °F 12.4 °F 17.1 °F 85% 30.05 in 10.0 mi SSW 6.9 mph - N/A   Overcast
5:54 AM 21.0 °F 16.2 °F 18.0 °F 88% 30.05 in 10.0 mi WSW 3.5 mph - N/A   Overcast
6:54 AM 21.9 °F 14.5 °F 18.0 °F 85% 30.05 in 10.0 mi WNW 5.8 mph - N/A   Overcast
7:27 AM 21.2 °F 11.7 °F 17.6 °F 86% 30.02 in 10.0 mi NNW 8.1 mph - N/A   Overcast
7:54 AM 19.9 °F 9.3 °F 16.0 °F 85% 30.06 in 7.0 mi North 9.2 mph - 0.00 in Snow Light Snow
8:17 AM 19.4 °F 6.6 °F 15.8 °F 86% 30.03 in 2.5 mi North 12.7 mph - 0.00 in Snow Light Snow
8:30 AM 17.6 °F 2.7 °F 12.2 °F 79% 30.05 in 1.5 mi North 16.1 mph - 0.00 in Snow Light Snow
8:54 AM 14.0 °F -2.0 °F 9.0 °F 80% 30.10 in 1.5 mi North 16.1 mph - 0.00 in Snow Light Snow
9:38 AM 10.4 °F -7.2 °F 5.0 °F 79% 30.07 in 3.0 mi North 17.3 mph - 0.00 in Snow Light Snow
9:54 AM 12.0 °F -2.0 °F 6.1 °F 77% 30.12 in 4.0 mi North 11.5 mph - 0.00 in Snow Light Snow
10:38 AM 10.4 °F -4.8 °F 5.0 °F 79% 30.08 in 3.0 mi North 12.7 mph - 0.00 in Snow Light Snow
10:54 AM 12.0 °F -2.7 °F 6.1 °F 77% 30.14 in 5.0 mi North 12.7 mph - 0.00 in Snow Light Snow
11:54 AM 12.0 °F -2.0 °F 3.9 °F 70% 30.13 in 10.0 mi North 11.5 mph - 0.00 in   Overcast
12:54 PM 12.9 °F -1.6 °F 3.0 °F 65% 30.12 in 10.0 mi North 12.7 mph - N/A   Mostly Cloudy
1:54 PM 12.9 °F -2.2 °F 3.0 °F 65% 30.13 in 10.0 mi North 13.8 mph - N/A   Mostly Cloudy
2:54 PM 12.9 °F -1.6 °F 1.9 °F 62% 30.14 in 10.0 mi North 12.7 mph - N/A   Mostly Cloudy
3:54 PM 12.0 °F -0.4 °F 1.9 °F 64% 30.15 in 10.0 mi NNW 9.2 mph - N/A   Mostly Cloudy
4:54 PM 10.9 °F 0.2 °F 1.9 °F 67% 30.15 in 10.0 mi North 6.9 mph - N/A   Overcast
5:54 PM 10.9 °F 2.9 °F 1.9 °F 67% 30.16 in 10.0 mi NNW 4.6 mph - N/A   Overcast
6:54 PM 9.0 °F - 1.0 °F 70% 30.15 in 10.0 mi Calm Calm - N/A   Overcast
7:54 PM 9.0 °F - 1.9 °F 73% 30.15 in 10.0 mi Calm Calm - N/A   Overcast
8:54 PM 9.0 °F - 1.9 °F 73% 30.13 in 10.0 mi Calm Calm - N/A   Scattered Clouds
9:54 PM 7.0 °F 0.1 °F 3.0 °F 84% 30.11 in 10.0 mi SSE 3.5 mph - N/A   Overcast
10:54 PM 8.1 °F - 3.9 °F 83% 30.10 in 10.0 mi Calm Calm - N/A   Overcast
11:54 PM 8.1 °F 1.4 °F 3.0 °F 80% 30.08 in 9.0 mi South 3.5 mph - 0.00 in Snow Light Snow